Siemreap, Cambodia

3:23 PM +07 on January 24, 2018 (GMT +0700)
Siem Reap

Weather History for VDSR - September, 2013

Change the Weather History Date:

Friday, September 20, 2013

  Actual Average Record
Temperature  
Mean Temperature 82 °F -  
Max Temperature 86 °F - - ()
Min Temperature 77 °F - - ()
Cooling Degree Days 16    
Growing Degree Days 32 (Base 50)    
Moisture  
Dew Point 75 °F    
Average Humidity 82    
Maximum Humidity 94    
Minimum Humidity 70    
Precipitation  
Precipitation 0.00 in - - ()
Sea Level Pressure  
Sea Level Pressure 29.61 in    
Wind  
Wind Speed 8 mph ()    
Max Wind Speed 17 mph    
Max Gust Speed -    
Visibility 5.6 miles    
Events Rain    
T = Trace of Precipitation, MM = Missing Value Source: Averaged Metar Reports

Daily Weather History Graph

Daily Weather History Graph

Search for Another Location

Airport or City:

Trip Planner

Search our weather history database for the weather conditions in past years. The results will help you decide how hot, cold, wet, or windy it might be!

Date:

Astronomy

Sep. 20, 2013 Rise Set
Actual Time 5:53 AM +07 6:02 PM +07
Civil Twilight 5:32 AM +07 6:23 PM +07
Nautical Twilight 5:07 AM +07 6:48 PM +07
Astronomical Twilight 4:42 AM +07 7:12 PM +07
Moon 6:35 PM +07 (9/20) 6:19 AM +07 (9/20)
Length of Visible Light 12h 51m
Length of Day
12h 08m
Full, 99% of the Moon is Illuminated
Sep 20
Full
Sep 27
Last Quarter
Oct 5
New
Oct 12
First Quarter
Oct 19
Full

Hourly Weather History & Observations

Time (+07) Temp. Heat Index Dew Point Humidity Pressure Visibility Wind Dir Wind Speed Gust Speed Precip Events Conditions
12:00 AM 77.0 °F - 73.4 °F 89% 29.59 in 3.7 mi West 17.3 mph - N/A Rain Light Rain
12:30 AM 77.0 °F - 73.4 °F 89% 29.59 in 3.7 mi West 17.3 mph - N/A Rain Light Rain
1:00 AM 77.0 °F - 73.4 °F 89% 29.59 in 3.7 mi West 12.7 mph - N/A Rain Light Rain
7:00 AM 77.0 °F - 75.2 °F 94% 29.59 in 5.6 mi Variable 2.3 mph - N/A Rain Light Rain
7:30 AM 78.8 °F - 75.2 °F 89% 29.62 in 5.6 mi NW 4.6 mph - N/A   Mostly Cloudy
8:00 AM 78.8 °F - 75.2 °F 89% 29.62 in 5.6 mi NNW 5.8 mph - N/A Rain Light Rain
8:30 AM 80.6 °F 86.2 °F 75.2 °F 84% 29.65 in 5.6 mi SW 5.8 mph - N/A   Mostly Cloudy
9:00 AM 78.8 °F - 73.4 °F 83% 29.65 in 5.6 mi SSW 6.9 mph - N/A   Mostly Cloudy
9:30 AM 80.6 °F 86.2 °F 75.2 °F 84% 29.65 in 5.6 mi South 5.8 mph - N/A   Mostly Cloudy
10:00 AM 80.6 °F 86.2 °F 75.2 °F 84% 29.65 in 5.6 mi SSW 10.4 mph - N/A   Mostly Cloudy
10:30 AM 78.8 °F - 75.2 °F 89% 29.65 in 5.6 mi SSW 9.2 mph - N/A Rain Light Rain
11:00 AM 82.4 °F 89.5 °F 75.2 °F 79% 29.62 in 6.2 mi SSW 9.2 mph - N/A   Mostly Cloudy
11:30 AM 82.4 °F 89.5 °F 75.2 °F 79% 29.62 in 6.2 mi SSW 6.9 mph - N/A   Mostly Cloudy
12:00 PM 82.4 °F 89.5 °F 75.2 °F 79% 29.62 in 6.2 mi SW 6.9 mph - N/A   Mostly Cloudy
12:30 PM 84.2 °F 92.3 °F 75.2 °F 74% 29.59 in 6.2 mi SSW 9.2 mph - N/A   Mostly Cloudy
1:00 PM 86.0 °F 95.1 °F 75.2 °F 70% 29.59 in 6.2 mi SW 11.5 mph - N/A   Mostly Cloudy
1:30 PM 84.2 °F 90.9 °F 73.4 °F 70% 29.56 in 6.2 mi SW 6.9 mph - N/A   Mostly Cloudy
2:00 PM 84.2 °F 92.3 °F 75.2 °F 74% 29.56 in 5.6 mi WSW 8.1 mph - N/A Rain Light Rain
2:30 PM 84.2 °F 92.3 °F 75.2 °F 74% 29.56 in 5.6 mi West 9.2 mph - N/A   Mostly Cloudy
3:00 PM 84.2 °F 90.9 °F 73.4 °F 70% 29.56 in 5.6 mi West 13.8 mph - N/A   Mostly Cloudy
3:30 PM 82.4 °F 88.2 °F 73.4 °F 74% 29.56 in 6.2 mi West 15.0 mph - N/A   Scattered Clouds
4:00 PM 82.4 °F 88.2 °F 73.4 °F 74% 29.56 in 6.2 mi West 15.0 mph - N/A   Scattered Clouds
4:30 PM 80.6 °F 85.4 °F 73.4 °F 79% 29.56 in 5.6 mi WSW 13.8 mph - N/A Rain Light Rain
5:00 PM 80.6 °F 85.4 °F 73.4 °F 79% 29.56 in 5.6 mi West 12.7 mph - N/A   Scattered Clouds
5:30 PM 80.6 °F 85.4 °F 73.4 °F 79% 29.56 in 5.6 mi West 11.5 mph - N/A   Scattered Clouds
6:00 PM 80.6 °F 85.4 °F 73.4 °F 79% 29.59 in 5.6 mi West 11.5 mph - N/A   Scattered Clouds
6:30 PM 80.6 °F 85.4 °F 73.4 °F 79% 29.62 in 5.6 mi West 5.8 mph - N/A   Scattered Clouds
7:00 PM 80.6 °F 85.4 °F 73.4 °F 79% 29.62 in 5.6 mi WSW 4.6 mph - N/A   Scattered Clouds
7:30 PM 80.6 °F 86.2 °F 75.2 °F 84% 29.62 in 5.6 mi Variable 3.5 mph - N/A   Scattered Clouds
8:00 PM 78.8 °F - 75.2 °F 89% 29.65 in 5.6 mi Variable 3.5 mph - N/A   Scattered Clouds
8:30 PM 78.8 °F - 75.2 °F 89% 29.65 in 5.6 mi Variable 1.2 mph - N/A   Scattered Clouds
9:00 PM 80.6 °F 86.2 °F 75.2 °F 84% 29.65 in 5.6 mi Calm Calm - N/A   Scattered Clouds
9:30 PM 80.6 °F 87.1 °F 77.0 °F 89% 29.68 in 5.6 mi Variable 1.2 mph - N/A   Scattered Clouds
10:00 PM 80.6 °F 87.1 °F 77.0 °F 89% 29.68 in 5.6 mi Variable 3.5 mph - N/A   Scattered Clouds
10:30 PM 78.8 °F - 75.2 °F 89% 29.68 in 5.6 mi SSW 5.8 mph - N/A   Mostly Cloudy
11:00 PM 78.8 °F - 75.2 °F 89% 29.68 in 5.6 mi SSW 4.6 mph - N/A   Mostly Cloudy
11:30 PM 78.8 °F - 75.2 °F 89% 29.68 in 5.6 mi SSW 4.6 mph - N/A   Mostly Cloudy